SCP
1 2 2 2 3 2 2 2 2 2 2 2 2 2 2 2 2 2 2 3 3 3 3 3 3 2 2 2 2 1 2 2 2 2 2 2 3 3 2 2 1 1 2
2 2 2 2 2 2 2 2 2 2 2 2 2 2 3 3 3 3 3 3 3 3 3 3 3 2 2 2 2 2 2 2 2 2 2 2 3 3 2 2 2 2 2
2 2 2 2 1 2 2 2 2 2 2 2 2 2 3 3 3 3 3 4 4 3 3 3 3 2 2 2 3 3 3 3 2 2 2 2 3 3 2 2 2 2 2
2 2 2 2 1 2 2 2 2 2 2 2 2 2 2 2 2 2 3 4 4 3 3 3 3 3 3 3 3 3 3 3 3 2 2 2 3 3 2 2 2 2 2
2 2 2 2 2 2 2 3 3 3 2 2 2 2 2 2 2 2 2 3 3 3 3 3 3 3 3 3 3 4 4 3 3 2 2 3 3 3 2 2 2 2 2
2 3 2 2 2 3 3 3 3 3 3 2 1 1 2 2 2 3 2 2 3 3 3 4 4 4 4 4 4 4 4 4 3 3 3 4 4 3 3 2 2 2 2
3 3 2 2 2 2 2 3 3 3 3 2 1 1 2 2 2 3 3 3 3 3 3 4 5 5 5 4 5 5 4 4 4 4 4 4 4 4 3 3 3 3 2
3 2 2 2 2 2 2 2 3 3 3 2 2 2 2 2 2 2 3 3 3 3 3 3 4 5 5 5 5 4 4 3 3 3 4 4 4 4 4 3 3 3 3
2 2 2 2 2 2 2 2 3 3 3 3 2 2 2 2 2 2 3 3 4 4 4 3 3 4 5 5 4 4 3 3 3 3 3 3 3 3 4 4 3 3 3
2 2 2 2 2 2 2 3 3 4 4 3 3 3 3 3 3 2 2 3 4 4 4 3 3 3 4 5 5 4 3 3 3 3 3 3 3 3 3 3 3 3 3
3 3 3 3 3 3 3 3 4 4 4 4 4 4 4 4 4 3 3 3 3 4 5 4 4 4 4 5 5 4 3 3 3 3 3 3 2 2 2 2 2 3 3
4 4 3 3 3 3 3 4 4 4 4 4 4 4 4 4 4 4 3 3 3 4 5 5 6 5 4 4 4 3 2 2 2 2 2 2 2 2 1 1 2 2 2
4 3 3 3 3 4 4 4 5 5 5 5 5 5 4 4 4 4 3 3 3 3 4 6 6 6 5 4 3 3 3 2 2 1 1 1 1 1 1 1 1 2 2
3 3 3 4 5 5 6 6 6 6 6 6 6 5 5 5 4 4 4 3 3 3 3 5 6 6 5 4 3 3 3 3 2 1 1 1 1 1 1 1 1 1 2
3 3 3 4 5 6 7 7 7 7 7 6 6 6 5 5 5 4 4 4 3 3 3 3 4 5 5 5 4 4 4 3 2 1 1 1 1 1 1 1 1 1 1
4 4 5 5 6 6 7 7 7 7 7 6 6 5 5 5 5 4 5 4 4 3 2 3 3 4 4 5 4 4 4 3 2 1 1 1 1 1 1 0 0 0 1
5 6 6 6 6 6 6 7 7 7 6 6 5 5 4 4 4 4 4 4 4 3 2 2 2 2 3 4 5 5 5 4 2 1 1 1 1 1 1 0 0 0 0
7 7 7 7 6 5 6 7 7 7 6 6 5 5 4 4 4 4 3 3 3 3 3 2 2 2 2 3 5 6 5 3 2 1 1 1 1 1 1 0 0 0 0
7 7 7 6 5 5 6 7 7 7 6 5 5 4 4 3 3 3 3 3 3 3 2 2 2 2 2 2 4 6 4 3 2 1 1 1 0 0 0 0 0 0 0
5 5 5 4 4 4 5 6 6 5 5 4 3 3 3 2 2 2 2 2 3 3 2 2 2 2 2 1 2 3 2 2 2 1 1 1 1 1 0 0 0 0 0
4 4 3 3 3 3 3 3 3 3 3 3 2 2 2 2 1 1 2 2 2 2 2 2 2 2 1 1 1 1 1 1 2 2 2 1 1 1 1 1 0 0 0
4 4 4 4 4 3 2 2 3 3 3 3 2 2 1 1 1 1 1 1 1 1 1 1 1 1 1 1 1 1 1 1 1 2 2 2 1 1 1 1 1 1 1
4 4 5 5 5 3 2 1 3 4 4 3 2 2 1 1 1 1 1 1 1 1 1 1 1 1 1 1 1 1 1 1 1 1 1 1 1 1 1 1 1 1 1
5 5 5 6 6 4 2 1 2 4 4 2 2 1 1 1 1 1 1 1 1 1 1 1 1 1 1 1 1 1 1 1 1 1 1 1 1 1 1 1 1 1 0
5 5 5 6 6 4 2 0 1 3 3 2 1 1 1 1 1 0 1 1 1 1 1 0 1 1 1 1 1 1 1 1 1 1 1 1 1 1 1 2 2 1 0
6 6 5 5 6 4 2 0 1 2 3 2 1 1 1 1 0 0 1 1 1 1 1 0 0 1 1 1 1 1 1 1 1 1 1 1 1 1 2 2 2 1 1
Wind_Speed
2 2 1 1 0 0 1 1 1 1 2 2 2 3 3 3 2 3 4 8 9 9 9 9 8 9 9 8 8 9 9 9 9 10 11 11 11 10 10 10 10 10 10
2 1 1 0 0 0 1 1 1 0 1 1 1 2 2 2 2 3 4 5 8 8 9 9 9 9 9 9 9 9 10 10 10 10 10 10 10 10 10 10 9 9 9
2 1 1 1 1 1 0 0 1 0 1 1 1 1 1 2 3 3 3 3 4 7 8 9 9 8 9 9 9 10 10 11 10 10 10 10 10 10 10 10 10 9 9
2 1 1 1 1 1 1 0 0 1 0 0 1 1 1 1 2 2 2 3 3 3 6 8 8 8 8 8 9 10 10 10 10 11 11 11 10 9 9 9 10 9 9
2 1 1 1 1 1 1 2 2 2 1 0 1 1 1 1 1 2 2 2 3 3 3 6 7 7 7 7 8 9 9 10 10 11 12 11 11 10 9 9 10 9 9
2 1 1 1 1 1 1 2 2 1 1 1 2 1 0 1 1 1 2 2 2 3 3 4 4 4 5 5 6 8 8 9 9 10 11 11 11 10 10 10 10 9 9
2 1 2 1 1 1 1 2 2 2 1 0 0 1 1 2 1 1 1 1 1 2 2 4 3 3 2 3 3 4 6 7 8 8 9 9 9 10 9 9 9 10 10
2 2 2 1 1 1 1 1 1 1 2 1 1 1 1 1 1 0 1 1 1 1 1 2 3 3 3 2 2 4 5 7 7 7 7 8 7 7 8 9 8 9 10
2 2 2 2 1 1 1 1 1 1 2 2 1 1 0 1 1 1 1 0 0 1 1 1 3 2 2 2 3 3 5 5 6 6 6 6 6 6 6 7 8 8 9
2 2 2 2 2 2 2 2 2 2 2 2 2 1 1 0 0 1 1 1 1 1 1 1 2 2 3 3 4 5 6 5 5 5 5 5 4 5 6 7 7 7 8
1 2 2 2 2 2 2 3 2 2 2 2 2 2 2 1 0 1 1 1 1 1 0 0 1 2 2 3 3 4 6 5 4 3 4 4 4 4 6 7 7 7 7
1 2 2 2 2 2 2 3 2 2 2 3 2 2 2 2 1 1 1 1 0 1 0 1 1 2 2 3 4 5 5 5 4 3 3 2 3 4 5 6 6 6 5
2 2 2 2 2 2 2 2 2 2 2 2 2 2 2 2 1 0 0 1 1 1 1 1 1 1 2 3 3 5 5 5 4 3 2 2 2 3 4 5 5 5 4
2 2 2 2 2 2 3 2 2 2 2 2 3 2 2 2 1 1 1 1 1 1 0 1 0 1 1 2 3 5 4 5 4 3 2 2 2 3 4 4 5 5 4
1 2 2 2 2 2 3 2 2 2 3 3 3 3 2 2 2 1 1 1 1 2 1 1 0 1 1 2 4 3 3 5 5 4 3 3 3 3 4 4 4 5 5
2 2 2 2 2 2 2 2 2 2 3 3 2 3 3 2 3 2 2 2 1 1 1 1 1 1 1 2 4 2 2 5 5 5 5 4 3 4 4 4 4 4 5
1 2 2 1 2 2 3 3 3 3 3 3 3 3 3 3 3 3 2 2 1 0 1 1 1 0 1 1 1 1 1 2 2 5 5 5 5 4 4 4 4 4 4
1 1 1 1 2 2 2 3 4 4 3 3 3 3 3 3 3 3 3 2 2 1 0 1 1 1 0 0 0 1 1 1 1 4 6 6 5 5 4 4 4 4 4
1 1 1 1 1 2 2 3 3 3 3 3 3 3 3 3 3 3 3 3 2 2 1 1 2 1 1 0 1 2 2 1 2 2 5 5 5 5 5 5 5 5 5
1 1 1 1 2 3 3 3 4 3 3 3 3 3 3 3 3 3 2 3 2 2 2 1 1 1 0 1 0 1 1 1 2 1 1 3 5 6 6 6 6 6 6
1 1 1 1 2 2 4 5 5 4 4 3 3 3 4 6 7 5 3 3 3 2 2 2 2 1 1 1 1 1 1 1 2 1 1 2 3 3 4 5 6 7 6
1 1 1 2 3 4 6 7 6 5 3 3 3 3 2 4 5 6 5 5 4 2 2 2 2 2 2 2 1 2 1 1 2 1 1 2 2 2 3 3 7 8 8
1 1 1 1 2 3 6 7 8 5 3 2 2 2 3 4 4 4 4 4 4 3 2 2 2 3 2 2 2 2 1 1 2 2 1 2 1 1 1 2 7 9 9
1 1 0 1 2 3 4 5 7 4 3 2 2 2 3 3 4 4 3 4 4 4 3 2 1 2 2 2 2 2 3 2 2 2 1 1 1 1 1 1 5 7 8
1 1 1 1 1 3 3 4 5 3 2 2 2 3 3 3 5 6 3 3 3 3 4 4 3 2 3 3 2 2 2 1 1 1 1 1 1 1 1 1 3 6 7
1 1 1 1 2 3 3 4 4 2 2 2 1 2 5 5 5 5 3 3 3 4 4 3 3 3 3 3 2 1 2 1 1 1 1 1 1 1 1 0 1 2 3
Wind_Direction
79 71 67 53 11 65 129 284 260 230 212 215 211 206 205 190 162 154 149 169 174 183 192 200 205 208 212 213 217 214 214 215 214 210 205 205 203 200 199 202 202 204 204
76 67 79 87 11 29 110 237 283 318 248 217 218 224 207 189 153 142 150 168 181 189 195 200 204 210 213 216 217 213 214 217 214 208 203 202 201 200 202 203 202 205 207
73 73 98 65 9 341 332 261 336 309 232 230 214 232 182 179 154 156 159 164 176 193 202 202 203 209 215 219 215 213 213 210 208 205 202 200 200 201 202 204 205 206 205
70 69 86 49 356 335 311 289 24 318 290 259 234 251 165 145 150 162 174 172 171 182 195 201 206 209 216 222 218 212 206 203 203 203 201 198 198 201 203 206 205 204 206
69 47 80 60 336 18 357 351 29 9 0 313 262 219 178 177 175 192 173 173 178 174 172 183 193 205 212 218 213 208 204 199 201 201 197 196 197 202 203 205 206 204 205
67 35 87 63 7 47 13 2 3 353 316 265 289 330 178 186 180 183 177 175 175 185 173 165 176 197 202 213 212 205 202 197 193 193 195 198 199 202 205 206 205 205 207
53 43 40 39 357 71 36 350 359 340 316 284 339 336 279 207 181 175 181 159 193 178 145 142 153 161 163 215 213 188 177 177 177 182 188 192 196 203 204 206 209 212 213
38 48 45 15 3 27 18 322 328 326 313 317 321 325 331 329 358 298 111 148 222 142 126 155 131 133 146 162 175 169 160 162 170 176 184 189 194 199 202 207 214 218 217
46 30 46 23 360 9 354 298 336 317 310 315 313 304 323 341 2 10 11 148 31 80 121 121 120 134 143 129 145 160 164 168 170 174 177 185 194 201 201 205 214 220 220
46 43 44 26 5 16 10 345 18 339 324 323 322 316 294 283 230 329 347 357 16 28 44 77 114 121 122 117 116 129 147 155 160 164 172 182 193 202 208 210 215 218 222
46 41 35 25 20 21 10 357 359 350 341 334 326 330 336 321 264 202 281 306 332 354 21 98 102 110 116 116 117 119 138 149 151 162 175 187 198 203 209 211 212 216 222
51 37 48 28 22 10 5 353 345 353 353 345 326 325 319 316 288 244 238 251 268 295 343 70 89 95 100 99 107 119 133 142 147 151 159 182 198 205 211 210 212 221 226
63 32 39 32 18 356 358 356 352 347 358 340 320 319 314 307 305 289 247 269 270 264 356 23 101 109 113 116 117 124 127 135 145 151 165 180 193 199 199 202 207 211 215
62 49 44 33 15 3 358 354 336 349 356 329 330 341 321 319 312 304 261 264 278 273 257 272 114 124 116 124 138 145 129 138 147 142 163 184 187 190 191 194 198 202 204
72 58 47 43 25 8 356 346 343 354 347 347 344 353 335 325 322 316 289 257 255 275 281 266 267 112 133 119 133 138 139 155 159 168 176 185 190 187 183 189 197 195 195
41 42 36 27 17 3 353 349 340 357 358 350 335 353 347 336 333 333 333 318 311 238 276 311 348 18 66 119 141 153 163 160 171 178 181 181 184 187 189 190 191 195 197
57 50 46 24 13 4 358 355 342 355 349 340 338 354 348 349 347 341 345 336 350 16 249 304 347 39 47 62 128 173 184 170 169 182 184 185 184 183 188 192 194 193 193
97 78 60 31 18 26 9 358 343 346 347 345 347 349 349 355 359 350 344 343 347 340 279 282 290 296 317 183 166 228 240 188 170 185 186 185 181 178 181 187 182 177 183
109 88 74 33 25 34 16 0 345 336 341 346 353 356 0 8 0 353 343 352 350 355 337 289 293 291 259 293 347 306 313 306 252 174 181 180 181 183 189 191 183 180 189
118 56 50 24 27 47 25 6 350 338 350 355 1 8 12 16 7 345 353 2 349 344 323 308 297 306 308 312 317 300 306 310 299 235 192 176 187 189 194 192 186 184 191
85 56 39 33 33 47 26 16 346 348 349 346 2 11 25 39 35 19 9 357 348 339 328 327 319 327 335 336 314 300 291 286 285 255 219 210 185 188 198 200 194 191 192
78 63 38 41 31 35 30 22 3 340 339 348 0 4 17 39 27 20 20 8 354 338 339 334 326 330 328 325 330 307 310 303 288 285 264 261 202 187 195 192 187 188 191
101 84 55 59 73 52 29 21 3 333 336 5 11 351 347 28 30 15 3 358 347 332 305 295 309 311 308 326 330 311 303 314 294 292 296 278 255 211 209 185 182 187 189
133 140 157 67 74 67 37 17 354 332 347 15 18 17 29 26 20 6 350 359 348 349 338 331 315 307 315 334 321 283 266 258 268 293 292 274 285 280 279 157 186 184 184
167 178 166 140 98 89 51 26 0 325 350 2 23 41 42 43 22 16 13 357 347 344 349 359 350 321 298 300 320 328 316 305 282 289 305 274 281 289 242 169 191 192 195
198 204 168 158 133 115 87 45 4 335 343 356 41 57 59 56 37 20 4 342 334 333 334 332 326 306 286 269 268 264 293 292 292 296 324 325 311 345 330 320 147 172 200